Weather History for KISW - March, 2013

Change the Weather History Date:

Wednesday, March 13, 2013

  Actual Average (KMFI) Record (KMFI)
Temperature  
Mean Temperature 22 °F -  
Max Temperature 30 °F 38 °F - (-1)
Min Temperature 15 °F 19 °F - (-1)
Degree Days  
Heating Degree Days 42    
Moisture  
Dew Point 6 °F    
Average Humidity 54    
Maximum Humidity 77    
Minimum Humidity 29    
Precipitation  
Precipitation 0.00 in - - ()
Sea Level Pressure  
Sea Level Pressure 30.27 in    
Wind  
Wind Speed 9 mph (WNW)    
Max Wind Speed 15 mph    
Max Gust Speed -    
Visibility 10 miles    
Events      
Averages and records for this station are not official NWS values.
T = Trace of Precipitation, MM = Missing Value Source: NWS Daily Summary

Daily Weather History Graph

Daily Weather History Graph

Search for Another Location

Airport or City:

Trip Planner

Search our weather history database for the weather conditions in past years. The results will help you decide how hot, cold, wet, or windy it might be!

Date:

Astronomy

Mar. 13, 2013 Rise Set
Actual Time 7:14 AM CDT 7:03 PM CDT
Civil Twilight 6:45 AM CDT 7:32 PM CDT
Nautical Twilight 6:12 AM CDT 8:05 PM CDT
Astronomical Twilight 5:38 AM CDT 8:40 PM CDT
Moon 7:48 AM CDT (3/13) 9:27 PM CDT (3/13)
Length of Visible Light 12h 46m
Length of Day
11h 48m
Waxing Crescent, 4% of the Moon is Illuminated
Mar 13
Waxing Crescent
Mar 19
First Quarter
Mar 27
Full
Apr 2
Last Quarter
Apr 10
New

Hourly Weather History & Observations

Time (CDT) Temp. Windchill Dew Point Humidity Pressure Visibility Wind Dir Wind Speed Gust Speed Precip Events Conditions
1:54 AM 18.0 °F 7.7 °F 10.9 °F 74% 30.12 in 10.0 mi NW 8.1 mph - N/A   Clear
2:54 AM 17.1 °F 6.6 °F 10.9 °F 77% 30.13 in 10.0 mi NW 8.1 mph - N/A   Clear
3:54 AM 16.0 °F 3.6 °F 10.0 °F 77% 30.14 in 10.0 mi NW 10.4 mph - N/A   Clear
4:54 AM 16.0 °F 4.4 °F 10.0 °F 77% 30.17 in 10.0 mi NW 9.2 mph - N/A   Clear
5:54 AM 16.0 °F 6.3 °F 9.0 °F 74% 30.19 in 10.0 mi WNW 6.9 mph - N/A   Scattered Clouds
6:54 AM 15.1 °F 4.2 °F 8.1 °F 74% 30.21 in 10.0 mi NW 8.1 mph - N/A   Partly Cloudy
7:54 AM 16.0 °F 4.4 °F 7.0 °F 68% 30.24 in 10.0 mi WNW 9.2 mph - N/A   Clear
8:54 AM 17.1 °F 5.0 °F 6.1 °F 62% 30.26 in 10.0 mi NW 10.4 mph - N/A   Clear
9:54 AM 19.9 °F 7.9 °F 6.1 °F 55% 30.29 in 10.0 mi NW 11.5 mph - N/A   Clear
10:54 AM 21.9 °F 9.8 °F 6.1 °F 51% 30.31 in 10.0 mi NNW 12.7 mph - N/A   Clear
11:54 AM 24.1 °F 12.5 °F 5.0 °F 44% 30.32 in 10.0 mi NW 12.7 mph - N/A   Clear
12:54 PM 24.1 °F 12.5 °F 5.0 °F 44% 30.32 in 10.0 mi WNW 12.7 mph - N/A   Clear
1:54 PM 26.1 °F 14.5 °F 5.0 °F 41% 30.31 in 10.0 mi NNW 13.8 mph - N/A   Clear
2:54 PM 27.0 °F 15.2 °F 3.9 °F 37% 30.31 in 10.0 mi WNW 15.0 mph - N/A   Clear
3:54 PM 28.9 °F 19.2 °F 3.0 °F 33% 30.32 in 10.0 mi NW 11.5 mph - N/A   Clear
4:54 PM 30.0 °F 21.7 °F 1.9 °F 30% 30.32 in 10.0 mi WNW 9.2 mph - N/A   Clear
5:54 PM 30.0 °F 21.7 °F 1.0 °F 29% 30.32 in 10.0 mi West 9.2 mph - N/A   Clear
6:54 PM 28.0 °F 21.7 °F 1.9 °F 33% 30.32 in 10.0 mi WNW 5.8 mph - N/A   Clear
7:54 PM 27.0 °F 23.0 °F 3.9 °F 37% 30.32 in 10.0 mi West 3.5 mph - N/A   Clear
8:54 PM 24.1 °F 17.0 °F 8.1 °F 51% 30.32 in 10.0 mi WSW 5.8 mph - N/A   Clear
9:54 PM 23.0 °F 15.8 °F 8.1 °F 53% 30.33 in 10.0 mi West 5.8 mph - N/A   Clear
10:54 PM 21.9 °F 14.5 °F 8.1 °F 55% 30.33 in 10.0 mi West 5.8 mph - N/A   Clear
11:54 PM 21.0 °F 16.2 °F 7.0 °F 55% 30.33 in 10.0 mi West 3.5 mph - N/A   Clear